Location: Home
(42.5358°N, 72.7383°W)
Time: 09:51:27
(UTC-05:00)

Transit 2A Rocket - Pass Details

Date: 04 December 2021
Orbit: 584 x 917 km, 66.7° (Epoch: 23 January)

Event Time Altitude Azimuth Distance (km) Brightness Sun altitude
Rises 06:19:16 0° 179° (S) 3,263 8.6 -8.3°
Reaches altitude 10° 06:21:49 10° 169° (S) 2,391 8.1 -7.8°
Maximum altitude 06:26:39 31° 109° (ESE) 1,448 7.4 -7.0°
Drops below altitude 10° 06:31:49 10° 49° (NE) 2,564 8.1 -6.2°
Sets 06:34:38 0° 39° (NE) 3,536 8.6 -5.7°
